User: anonymous   Login
Location: Grisols
(45.0093°N, 3.1167°E)
Time: 08:19:57
(UTC+00:00)
Language:

CZ-2D R/B - Orbit

View from above orbital plane
View from above orbital plane
View from above satellite
View from above satellite

Ground track
Ground track

The orbit data is extracted from the following two-line orbital elements,

1 28738U 05024B   19345.76684546 +.00000262 +00000-0 +18897-4 0  9994
2 28738 097.3995 009.4243 0013535 112.9438 247.3223 15.11923183792891
Epoch (UTC): 11 December 2019 18:24:15
Eccentricity: 0.0013535
inclination: 97.3995°
perigee height: 521 km
apogee height: 539 km
right ascension of ascending node: 9.4243°
argument of perigee: 112.9438°
revolutions per day: 15.11923183
mean anomaly at epoch: 247.3223°
orbit number at epoch: 79289

The dashed part of the orbit path shows where the satellite is in the earth's shadow,  

DLR